�������l�o���
Date,Time,MP-1(��Sv/h),MP-2(��Sv/h),MP-3(��Sv/h),MP-4(��Sv/h),MP-5(��Sv/h),MP-6(��Sv/h),MP-7(��Sv/h),MP-8(��Sv/h),����,����(m/s),���J
2024/01/03,00:00,0.504,0.763,0.480,0.965,0.688,0.312,0.556,0.521,�쓌,1.5,��
2024/01/03,00:10,0.504,0.764,0.479,0.966,0.687,0.311,0.557,0.522,�k��,1.5,��
2024/01/03,00:20,0.505,0.763,0.479,0.965,0.686,0.312,0.559,0.523,���k��,3.8,��
2024/01/03,00:30,0.505,0.762,0.480,0.965,0.687,0.311,0.559,0.523,�k��,4.1,��
2024/01/03,00:40,0.504,0.763,0.483,0.963,0.686,0.311,0.558,0.522,��,5.0,��
2024/01/03,00:50,0.504,0.760,0.480,0.967,0.686,0.310,0.559,0.521,��,6.0,��
2024/01/03,01:00,0.504,0.762,0.480,0.965,0.687,0.313,0.557,0.521,��,5.7,��
2024/01/03,01:10,0.503,0.764,0.480,0.965,0.687,0.311,0.558,0.521,��,7.3,��
2024/01/03,01:20,0.504,0.760,0.480,0.966,0.688,0.312,0.557,0.521,��,7.2,��
2024/01/03,01:30,0.505,0.762,0.479,0.967,0.688,0.313,0.558,0.522,��,6.6,��
2024/01/03,01:40,0.504,0.763,0.480,0.966,0.687,0.311,0.557,0.523,��,4.8,��
2024/01/03,01:50,0.504,0.762,0.479,0.967,0.687,0.311,0.558,0.522,��,6.1,��
2024/01/03,02:00,0.505,0.761,0.480,0.968,0.687,0.313,0.559,0.523,��,5.5,��
2024/01/03,02:10,0.504,0.762,0.479,0.967,0.688,0.311,0.559,0.523,��,4.2,��
2024/01/03,02:20,0.506,0.764,0.479,0.968,0.686,0.312,0.558,0.522,��,2.0,��
2024/01/03,02:30,0.504,0.762,0.479,0.966,0.686,0.310,0.557,0.522,���k��,2.2,��
2024/01/03,02:40,0.504,0.763,0.480,0.966,0.686,0.311,0.558,0.522,���k��,2.6,��
2024/01/03,02:50,0.504,0.763,0.478,0.965,0.689,0.311,0.559,0.522,���k��,3.3,��
2024/01/03,03:00,0.505,0.762,0.480,0.967,0.687,0.310,0.559,0.522,���k��,2.0,��
2024/01/03,03:10,0.503,0.763,0.480,0.966,0.687,0.312,0.557,0.523,���k��,3.0,��
2024/01/03,03:20,0.505,0.762,0.479,0.969,0.687,0.312,0.558,0.521,���k��,5.5,��
2024/01/03,03:30,0.505,0.764,0.481,0.969,0.687,0.310,0.557,0.522,�k��,5.2,��
2024/01/03,03:40,0.505,0.762,0.480,0.967,0.686,0.312,0.559,0.523,�k��,4.6,��
2024/01/03,03:50,0.505,0.762,0.481,0.969,0.687,0.312,0.558,0.522,�k��,4.6,��
2024/01/03,04:00,0.505,0.761,0.479,0.965,0.686,0.311,0.559,0.524,���k��,3.4,��
2024/01/03,04:10,0.505,0.763,0.481,0.966,0.688,0.312,0.558,0.521,���k��,2.5,��
2024/01/03,04:20,0.505,0.762,0.480,0.966,0.687,0.312,0.558,0.523,�k��,2.6,��
2024/01/03,04:30,0.505,0.762,0.480,0.968,0.688,0.311,0.558,0.523,�k��,3.8,��
2024/01/03,04:40,0.507,0.763,0.481,0.969,0.689,0.312,0.559,0.524,�k,3.3,��
2024/01/03,04:50,0.504,0.763,0.480,0.967,0.687,0.311,0.557,0.523,�k,2.8,��
2024/01/03,05:00,0.504,0.762,0.482,0.967,0.687,0.312,0.558,0.522,�k,2.6,��
2024/01/03,05:10,0.504,0.764,0.480,0.967,0.686,0.311,0.559,0.523,�k�k��,2.3,��
2024/01/03,05:20,0.504,0.762,0.479,0.968,0.688,0.312,0.558,0.522,�k,2.3,��
2024/01/03,05:30,0.504,0.763,0.480,0.969,0.688,0.312,0.558,0.522,�k,3.4,��
2024/01/03,05:40,0.506,0.762,0.481,0.966,0.686,0.313,0.557,0.523,�k�k��,2.8,��
2024/01/03,05:50,0.505,0.762,0.480,0.969,0.687,0.312,0.556,0.521,�k,1.9,��
2024/01/03,06:00,0.506,0.762,0.480,0.968,0.688,0.311,0.558,0.522,�k�k��,3.4,��
2024/01/03,06:10,0.506,0.763,0.481,0.966,0.687,0.312,0.558,0.522,�k��,3.0,��
2024/01/03,06:20,0.504,0.763,0.480,0.967,0.689,0.311,0.557,0.522,�k,3.0,��
2024/01/03,06:30,0.506,0.762,0.479,0.967,0.687,0.312,0.558,0.522,�k��,2.6,��
2024/01/03,06:40,0.505,0.761,0.480,0.968,0.686,0.313,0.560,0.523,�k,2.0,��
2024/01/03,06:50,0.507,0.763,0.480,0.968,0.686,0.311,0.558,0.523,�k,2.6,��
2024/01/03,07:00,0.506,0.762,0.480,0.967,0.687,0.313,0.558,0.522,�k�k��,2.8,��
2024/01/03,07:10,0.507,0.765,0.481,0.966,0.688,0.312,0.559,0.522,�k�k��,2.0,��
2024/01/03,07:20,0.505,0.764,0.481,0.966,0.688,0.312,0.560,0.524,�k�k��,1.7,��
2024/01/03,07:30,0.504,0.764,0.482,0.969,0.688,0.312,0.559,0.523,�k�k��,2.6,��
2024/01/03,07:40,0.506,0.763,0.481,0.967,0.689,0.312,0.558,0.522,�k�k��,2.5,��
2024/01/03,07:50,0.507,0.763,0.480,0.966,0.687,0.313,0.558,0.522,�k,1.9,��
2024/01/03,08:00,0.507,0.763,0.480,0.967,0.687,0.312,0.557,0.523,�k�k��,1.7,��
2024/01/03,08:10,0.505,0.763,0.481,0.966,0.688,0.312,0.558,0.523,�k�k��,1.7,��
2024/01/03,08:20,0.505,0.764,0.480,0.967,0.688,0.311,0.559,0.523,�k�k��,1.5,��
2024/01/03,08:30,0.506,0.764,0.481,0.967,0.687,0.311,0.559,0.523,���k��,1.8,��
2024/01/03,08:40,0.506,0.764,0.481,0.967,0.688,0.312,0.559,0.522,�k��,2.6,��
2024/01/03,08:50,0.507,0.766,0.481,0.968,0.687,0.312,0.557,0.524,���k��,2.3,��
2024/01/03,09:00,0.506,0.766,0.480,0.971,0.686,0.312,0.560,0.523,���k��,3.1,��
2024/01/03,09:10,0.506,0.765,0.481,0.969,0.689,0.311,0.558,0.523,���k��,3.3,��
2024/01/03,09:20,0.507,0.765,0.481,0.969,0.688,0.313,0.558,0.523,�k��,2.6,��
2024/01/03,09:30,0.506,0.765,0.480,0.969,0.689,0.312,0.557,0.524,�k��,2.6,��
2024/01/03,09:40,0.506,0.766,0.481,0.966,0.688,0.313,0.559,0.525,�k��,2.6,��
2024/01/03,09:50,0.507,0.766,0.481,0.968,0.691,0.314,0.558,0.524,���k��,2.2,��
2024/01/03,10:00,0.505,0.764,0.482,0.969,0.690,0.314,0.558,0.522,���k��,2.6,��
2024/01/03,10:10,0.508,0.765,0.480,0.969,0.689,0.312,0.558,0.525,���k��,3.2,��
2024/01/03,10:20,0.506,0.764,0.482,0.967,0.689,0.312,0.559,0.524,���k��,3.6,��
2024/01/03,10:30,0.507,0.766,0.483,0.968,0.690,0.313,0.556,0.524,��,3.0,��
2024/01/03,10:40,0.507,0.766,0.481,0.969,0.690,0.314,0.559,0.524,�k��,1.9,��
2024/01/03,10:50,0.510,0.764,0.482,0.969,0.689,0.313,0.558,0.523,��,1.5,��
2024/01/03,11:00,0.509,0.765,0.482,0.970,0.690,0.313,0.558,0.524,��,1.2,��
2024/01/03,11:10,0.506,0.768,0.482,0.970,0.690,0.314,0.557,0.523,�k��,1.4,��
2024/01/03,11:20,0.508,0.767,0.483,0.969,0.691,0.313,0.556,0.525,�k��,0.6,��
2024/01/03,11:30,0.508,0.767,0.482,0.970,0.691,0.315,0.557,0.525,�k��,0.9,��
2024/01/03,11:40,0.507,0.767,0.483,0.971,0.692,0.314,0.558,0.525,�k�k��,2.0,��
2024/01/03,11:50,0.508,0.765,0.482,0.968,0.693,0.314,0.559,0.524,�k�k��,1.7,��
2024/01/03,12:00,0.507,0.768,0.482,0.970,0.691,0.314,0.558,0.524,�k��,1.7,��
2024/01/03,12:10,0.507,0.767,0.482,0.968,0.692,0.313,0.557,0.524,�k��,1.4,��
2024/01/03,12:20,0.509,0.768,0.484,0.970,0.692,0.314,0.558,0.524,�k��,1.5,��
2024/01/03,12:30,0.510,0.768,0.484,0.968,0.691,0.314,0.558,0.524,�k�k��,2.5,��
2024/01/03,12:40,0.510,0.766,0.484,0.970,0.693,0.314,0.558,0.525,�k�k��,3.2,��
2024/01/03,12:50,0.510,0.767,0.484,0.969,0.693,0.313,0.558,0.524,�k��,2.6,��
2024/01/03,13:00,0.508,0.766,0.484,0.971,0.692,0.314,0.558,0.523,�k��,3.1,��
2024/01/03,13:10,0.510,0.768,0.483,0.972,0.690,0.313,0.558,0.525,�k��,2.6,��
2024/01/03,13:20,0.510,0.768,0.483,0.969,0.692,0.314,0.558,0.524,�k��,2.3,��
2024/01/03,13:30,0.510,0.768,0.484,0.972,0.692,0.314,0.557,0.524,�k��,1.7,��
2024/01/03,13:40,0.510,0.769,0.483,0.971,0.691,0.313,0.559,0.527,�k�k��,1.5,��
2024/01/03,13:50,0.510,0.768,0.484,0.970,0.692,0.315,0.557,0.525,�k��,1.7,��
2024/01/03,14:00,0.508,0.768,0.482,0.969,0.695,0.313,0.558,0.525,�k��,1.5,��
2024/01/03,14:10,0.510,0.767,0.483,0.971,0.693,0.314,0.559,0.524,�k��,1.9,��
2024/01/03,14:20,0.510,0.769,0.483,0.970,0.692,0.313,0.558,0.524,�k�k��,1.5,��
2024/01/03,14:30,0.509,0.769,0.483,0.971,0.692,0.314,0.558,0.525,�k,0.6,��
2024/01/03,14:40,0.510,0.770,0.484,0.973,0.693,0.314,0.560,0.525,-,CALM,��
2024/01/03,14:50,0.509,0.769,0.483,0.971,0.692,0.314,0.558,0.524,�k��,1.1,��
2024/01/03,15:00,0.510,0.769,0.483,0.971,0.694,0.313,0.558,0.524,��,1.5,��
2024/01/03,15:10,0.510,0.769,0.485,0.971,0.693,0.314,0.559,0.524,�k��,1.1,��
2024/01/03,15:20,0.510,0.768,0.483,0.968,0.691,0.314,0.557,0.525,���k��,1.4,��
2024/01/03,15:30,0.510,0.768,0.483,0.970,0.694,0.314,0.558,0.524,���k��,1.7,��
2024/01/03,15:40,0.508,0.768,0.484,0.973,0.693,0.315,0.559,0.524,���k��,2.5,��
2024/01/03,15:50,0.509,0.770,0.484,0.970,0.693,0.313,0.559,0.526,�k��,1.5,��
2024/01/03,16:00,0.509,0.768,0.484,0.969,0.692,0.315,0.558,0.524,�k,0.9,��
2024/01/03,16:10,0.508,0.769,0.483,0.970,0.694,0.314,0.559,0.525,�k�k��,1.7,��
2024/01/03,16:20,0.509,0.769,0.482,0.970,0.694,0.314,0.560,0.525,�k��,1.7,��
2024/01/03,16:30,0.509,0.769,0.484,0.971,0.694,0.312,0.560,0.524,�k��,2.3,��
2024/01/03,16:40,0.509,0.772,0.485,0.972,0.693,0.313,0.559,0.524,�k��,2.9,��
2024/01/03,16:50,0.509,0.768,0.484,0.971,0.692,0.314,0.559,0.526,�k��,3.1,��
2024/01/03,17:00,0.508,0.768,0.483,0.971,0.691,0.315,0.558,0.525,�k��,3.4,��
2024/01/03,17:10,0.508,0.770,0.484,0.970,0.692,0.314,0.560,0.523,�k��,3.2,��
2024/01/03,17:20,0.509,0.769,0.482,0.972,0.692,0.314,0.561,0.524,�k��,3.1,��
2024/01/03,17:30,0.508,0.769,0.482,0.971,0.692,0.314,0.559,0.522,�k��,3.9,��
2024/01/03,17:40,0.509,0.770,0.483,0.971,0.694,0.315,0.559,0.524,�k��,3.8,��
2024/01/03,17:50,0.509,0.768,0.484,0.971,0.693,0.314,0.559,0.524,�k��,3.3,��
2024/01/03,18:00,0.510,0.769,0.484,0.971,0.692,0.314,0.560,0.524,�k��,3.1,��
2024/01/03,18:10,0.509,0.769,0.483,0.971,0.694,0.315,0.559,0.522,�k��,2.3,��
2024/01/03,18:20,0.509,0.768,0.485,0.969,0.693,0.313,0.560,0.524,�k�k��,2.3,��
2024/01/03,18:30,0.508,0.767,0.483,0.972,0.693,0.314,0.560,0.525,�k��,2.6,��
2024/01/03,18:40,0.510,0.767,0.483,0.971,0.693,0.313,0.560,0.524,�k��,2.3,��
2024/01/03,18:50,0.509,0.770,0.483,0.971,0.692,0.312,0.560,0.523,���k��,4.6,��
2024/01/03,19:00,0.510,0.768,0.483,0.972,0.693,0.315,0.560,0.524,���k��,3.8,��
2024/01/03,19:10,0.510,0.768,0.482,0.971,0.694,0.315,0.559,0.524,���k��,4.6,�L
2024/01/03,19:20,0.510,0.768,0.484,0.971,0.693,0.313,0.559,0.524,���k��,3.8,�L
2024/01/03,19:30,0.511,0.767,0.485,0.972,0.695,0.314,0.559,0.524,�k��,2.0,�L
2024/01/03,19:40,0.511,0.765,0.484,0.972,0.693,0.315,0.560,0.523,�k��,2.6,�L
2024/01/03,19:50,0.512,0.766,0.483,0.971,0.693,0.316,0.559,0.524,���k��,3.5,�L
2024/01/03,20:00,0.510,0.763,0.485,0.973,0.694,0.315,0.559,0.525,�k��,4.6,�L
2024/01/03,20:10,0.513,0.762,0.484,0.972,0.692,0.318,0.557,0.526,-,CALM,�L
2024/01/03,20:20,0.509,0.762,0.485,0.973,0.691,0.318,0.557,0.524,���k��,4.6,�L
2024/01/03,20:30,0.510,0.762,0.484,0.971,0.688,0.318,0.558,0.524,���k��,4.3,�L
2024/01/03,20:40,0.510,0.760,0.485,0.971,0.689,0.319,0.558,0.523,���k��,4.3,�L
2024/01/03,20:50,0.507,0.758,0.484,0.968,0.686,0.320,0.557,0.524,�k��,3.3,�L
2024/01/03,21:00,0.509,0.757,0.484,0.964,0.684,0.319,0.557,0.524,��,2.3,�L
2024/01/03,21:10,0.506,0.753,0.486,0.963,0.686,0.321,0.556,0.524,���k��,2.6,�L
2024/01/03,21:20,0.510,0.756,0.486,0.962,0.685,0.320,0.557,0.523,�k�k��,2.6,�L
2024/01/03,21:30,0.507,0.757,0.487,0.960,0.684,0.319,0.556,0.523,�k�k��,3.5,�L
2024/01/03,21:40,0.507,0.756,0.483,0.958,0.682,0.319,0.555,0.523,�k�k��,5.2,�L
2024/01/03,21:50,0.506,0.756,0.484,0.957,0.684,0.319,0.556,0.522,�k�k��,5.2,�L
2024/01/03,22:00,0.506,0.755,0.482,0.961,0.685,0.318,0.555,0.523,�k,5.3,�L
2024/01/03,22:10,0.504,0.755,0.482,0.958,0.682,0.316,0.555,0.522,�k,7.1,��
2024/01/03,22:20,0.504,0.755,0.481,0.956,0.682,0.315,0.556,0.522,�k�k��,7.0,�L
2024/01/03,22:30,0.503,0.752,0.478,0.955,0.682,0.315,0.555,0.521,�k,8.1,�L
2024/01/03,22:40,0.502,0.753,0.478,0.954,0.681,0.314,0.554,0.521,�k�k��,8.4,��
2024/01/03,22:50,0.503,0.751,0.478,0.955,0.681,0.313,0.554,0.521,�k�k��,8.0,��
2024/01/03,23:00,0.503,0.752,0.477,0.954,0.679,0.313,0.554,0.520,�k�k��,7.6,��
2024/01/03,23:10,0.499,0.751,0.477,0.954,0.679,0.312,0.554,0.520,�k�k��,7.2,��
2024/01/03,23:20,0.501,0.751,0.475,0.954,0.679,0.310,0.554,0.521,�k�k��,7.5,��
2024/01/03,23:30,0.500,0.752,0.474,0.952,0.678,0.311,0.555,0.520,�k�k��,7.4,��
2024/01/03,23:40,0.501,0.752,0.474,0.954,0.680,0.312,0.555,0.519,�k�k��,8.7,��
2024/01/03,23:50,0.499,0.750,0.477,0.953,0.679,0.312,0.554,0.520,�k�k��,8.3,��
